Houston Hull, TX

11:15 PM CST on December 12, 2019 (GMT -0600)
Sugar Land Municipal-Hull

Weather History for KSGR - October, 2019

Change the Weather History Date:

Sunday, October 13, 2019

  Actual Average Record
Temperature  
Mean Temperature 70 °F -  
Max Temperature 82 °F 81 °F 94 °F (1950)
Min Temperature 57 °F 59 °F 42 °F (1977)
Cooling Degree Days 4    
Growing Degree Days 20 (Base 50)    
Moisture  
Dew Point 58 °F    
Average Humidity 65    
Maximum Humidity 84    
Minimum Humidity 53    
Precipitation  
Precipitation 0.00 in - - ()
Sea Level Pressure  
Sea Level Pressure 30.02 in    
Wind  
Wind Speed 4 mph (NE)    
Max Wind Speed 8 mph    
Max Gust Speed -    
Visibility 10 miles    
Events      
Averages and records for this station are not official NWS values.
T = Trace of Precipitation, MM = Missing Value Source: NWS Daily Summary

Daily Weather History Graph

Daily Weather History Graph

Search for Another Location

Airport or City:

Astronomy

Oct. 13, 2019 Rise Set
Actual Time 7:22 AM CDT 6:54 PM CDT
Civil Twilight 6:58 AM CDT 7:18 PM CDT
Nautical Twilight 6:31 AM CDT 7:46 PM CDT
Astronomical Twilight 6:03 AM CDT 8:13 PM CDT
Moon 7:13 PM CDT 7:04 AM CDT
Length of Visible Light 12h 19m
Length of Day
11h 31m
Full, 100% of the Moon is Illuminated
Oct 13
Full
Oct 13
Full
Oct 21
Last Quarter
Oct 27
New
Nov 4
First Quarter

Hourly Weather History & Observations

Time (CDT) Temp. Heat Index Dew Point Humidity Pressure Visibility Wind Dir Wind Speed Gust Speed Precip Events Conditions
12:53 AM 57.0 °F - 50.0 °F 77% 30.07 in 10.0 mi NNW 3.5 mph - N/A   Clear
1:53 AM 59.0 °F - 50.0 °F 72% 30.05 in 10.0 mi Calm Calm - N/A   Clear
2:53 AM 59.0 °F - 50.0 °F 72% 30.04 in 10.0 mi ENE 4.6 mph - N/A   Clear
3:53 AM 59.0 °F - 51.1 °F 75% 30.02 in 10.0 mi North 3.5 mph - N/A   Clear
4:53 AM 57.9 °F - 53.1 °F 84% 30.03 in 10.0 mi NNW 4.6 mph - N/A   Clear
5:53 AM 60.1 °F - 54.0 °F 80% 30.03 in 10.0 mi NE 3.5 mph - N/A   Overcast
6:53 AM 60.1 °F - 52.0 °F 75% 30.03 in 10.0 mi NE 4.6 mph - N/A   Mostly Cloudy
7:53 AM 61.0 °F - 52.0 °F 72% 30.04 in 10.0 mi NNE 5.8 mph - N/A   Mostly Cloudy
8:51 AM 64.4 °F - 51.8 °F 64% 30.05 in 10.0 mi NE 4.6 mph - N/A   Overcast
8:53 AM 64.0 °F - 52.0 °F 65% 30.06 in 10.0 mi NE 4.6 mph - N/A   Overcast
9:01 AM 64.0 °F - 52.0 °F 65% 30.06 in 10.0 mi NNE 4.6 mph - N/A   Mostly Cloudy
9:32 AM 66.0 °F - 53.1 °F 63% 30.06 in 10.0 mi North 4.6 mph - N/A   Mostly Cloudy
9:53 AM 66.9 °F - 53.1 °F 61% 30.06 in 10.0 mi NE 4.6 mph - N/A   Overcast
10:53 AM 72.0 °F - 54.0 °F 53% 30.07 in 10.0 mi NNE 6.9 mph - N/A   Overcast
11:27 AM 73.9 °F - 55.9 °F 53% 30.06 in 10.0 mi NE 4.6 mph - N/A   Overcast
11:53 AM 73.9 °F - 55.9 °F 53% 30.06 in 10.0 mi ENE 5.8 mph - N/A   Overcast
12:39 PM 77.0 °F - 59.0 °F 54% 30.04 in 10.0 mi North 5.8 mph - N/A   Mostly Cloudy
12:53 PM 77.0 °F - 59.0 °F 54% 30.04 in 10.0 mi North 5.8 mph - N/A   Overcast
1:30 PM 78.1 °F - 61.0 °F 56% 30.02 in 10.0 mi Calm Calm - N/A   Scattered Clouds
1:53 PM 80.1 °F 81.2 °F 62.1 °F 54% 30.01 in 10.0 mi ENE 5.8 mph - N/A   Clear
2:53 PM 81.0 °F 82.5 °F 64.0 °F 56% 29.98 in 10.0 mi South 4.6 mph - N/A   Clear
3:53 PM 82.0 °F 83.8 °F 64.9 °F 56% 29.96 in 10.0 mi Calm Calm - N/A   Mostly Cloudy
4:53 PM 81.0 °F 82.7 °F 64.9 °F 58% 29.96 in 10.0 mi Calm Calm - N/A   Mostly Cloudy
5:53 PM 82.0 °F 83.8 °F 64.9 °F 56% 29.95 in 10.0 mi East 4.6 mph - N/A   Overcast
6:53 PM 81.0 °F 82.7 °F 64.9 °F 58% 29.96 in 10.0 mi East 4.6 mph - N/A   Overcast
7:53 PM 77.0 °F - 66.0 °F 69% 29.97 in 10.0 mi ESE 8.1 mph - N/A   Scattered Clouds
8:53 PM 75.9 °F - 66.0 °F 71% 29.98 in 10.0 mi ESE 4.6 mph - N/A   Scattered Clouds
9:53 PM 75.0 °F - 66.0 °F 73% 29.99 in 10.0 mi ESE 5.8 mph - N/A   Partly Cloudy
10:53 PM 73.9 °F - 66.9 °F 79% 29.99 in 10.0 mi ESE 5.8 mph - N/A   Clear
11:53 PM 73.9 °F - 68.0 °F 82% 29.99 in 10.0 mi East 4.6 mph - N/A   Clear